Location: Spruce Knob
(38.6995°N, 79.5330°W)
Time: 21:44:15
(UTC-04:00)

A-11 Canister half - Pass Details

Date: 01 February 2022
Orbit: 1513 x 1686 km, 47.2° (Epoch: 24 May)

Event Time Altitude Azimuth Distance (km) Brightness Sun altitude
Rises 23:50:44 0° 286° (WNW) 4,656 11.7 -66.3°
Enters shadow 23:50:49 - 286° (WNW) 4,633 11.7 -66.4°
Reaches altitude 10° 23:56:07 10° 261° (W) 3,667 - -66.8°
Maximum altitude 23:59:39 13° 238° (WSW) 3,454 - -67.0°
Drops below altitude 10° 00:03:11 10° 214° (SW) 3,676 - -67.2°
Sets 00:08:41 0° 188° (S) 4,678 - -67.5°
